This is the latest recevied weather packets stored in our database for station/object WX9WTF. If no packets are shown the sender has not sent any weather packets the latest 10 day(s).
| Time | Temp. | Humidity | Pressure | Rain* | Wind** | Luminosity | Snow |
|---|---|---|---|---|---|---|---|
| 1777910425 | 23.33° C | 51% | 1004.7 hPa | 0 mm | - | 623 W/m² | - |
| 1777910122 | 23.33° C | 54% | 1004.8 hPa | 0 mm | - | 751 W/m² | - |
| 1777909820 | 23.33° C | 56% | 1004.6 hPa | 0 mm | - | 722 W/m² | - |
| 1777909516 | 23.33° C | 55% | 1004.8 hPa | 0 mm | - | 705 W/m² | - |
| 1777909213 | 23.33° C | 56% | 1004.7 hPa | 0 mm | - | 678 W/m² | - |
| 1777908911 | 22.78° C | 54% | 1004.8 hPa | 0 mm | - | 692 W/m² | - |
| 1777908609 | 22.78° C | 55% | 1004.8 hPa | 0 mm | - | 679 W/m² | - |
| 1777908305 | 22.22° C | 57% | 1004.9 hPa | 0 mm | - | 676 W/m² | - |
| 1777908001 | 22.22° C | 56% | 1004.8 hPa | 0 mm | - | 655 W/m² | - |
| 1777907697 | 21.67° C | 58% | 1004.8 hPa | 0 mm | - | 597 W/m² | - |
| 1777907392 | 22.22° C | 58% | 1004.8 hPa | 0 mm | - | 638 W/m² | - |
| 1777907089 | 21.67° C | 58% | 1004.9 hPa | 0 mm | - | 667 W/m² | - |
| 1777906787 | 21.67° C | 60% | 1004.8 hPa | 0 mm | - | 565 W/m² | - |
| 1777906484 | 21.11° C | 62% | 1004.9 hPa | 0 mm | - | 608 W/m² | - |
| 1777906180 | 20° C | 60% | 1005 hPa | 0 mm | - | 569 W/m² | - |
| 1777905877 | 20° C | 59% | 1005 hPa | 0 mm | - | 135 W/m² | - |
| 1777905574 | 20° C | 59% | 1005 hPa | 0 mm | - | 186 W/m² | - |
| 1777905271 | 21.11° C | 57% | 1005.1 hPa | 0 mm | - | 158 W/m² | - |
| 1777904968 | 21.11° C | 58% | 1005 hPa | 0 mm | - | 631 W/m² | - |
| 1777904665 | 20° C | 62% | 1004.8 hPa | 0 mm | - | 601 W/m² | - |
| 1777904362 | 18.89° C | 63% | 1005 hPa | 0 mm | - | 124 W/m² | - |
| 1777904059 | 18.89° C | 61% | 1004.9 hPa | 0 mm | - | 87 W/m² | - |
| 1777903756 | 19.44° C | 61% | 1005.1 hPa | 0 mm | - | 131 W/m² | - |
| 1777903452 | 19.44° C | 60% | 1004.9 hPa | 0 mm | - | 195 W/m² | - |
| 1777903148 | 20° C | 60% | 1004.9 hPa | 0 mm | - | 145 W/m² | - |
* Rain latest hour (hover to see other rain measurements)
** Current wind speed in m/s (hover to see current wind gust speed)